When you browse on this site, cookies collect data to enhance your experience and personalize the content and advertising you see.
Visit our Privacy Policy to learn more. By continuing to use the site, you agree to this use of cookies and data.
  • In Czech Republic
  • List of Countries
  • For 7 days
  • Water Temperature
  • Weather Map
  • Weather Widgets
  • user-avatar
    Login

    Hourly Weather Berat

    Today, 5 April, Sunday

    Time Temperature Precipitation Wind Pressure Humidity
    00:00 +10°C° 0 mm 2 mps 740 mmHg 76%
    01:00 +10°C° 0 mm 3 mps 740 mmHg 77%
    02:00 +10°C° 0 mm 3 mps 740 mmHg 78%
    03:00 +10°C° 0 mm 2 mps 740 mmHg 78%
    04:00 +10°C° 0 mm 2 mps 740 mmHg 78%
    05:00 +12°C° 0 mm 2 mps 740 mmHg 78%
    06:00 +12°C° 0 mm 2 mps 741 mmHg 77%
    07:00 +12°C° 0 mm 3 mps 741 mmHg 77%
    08:00 +13°C° 0 mm 3 mps 741 mmHg 73%
    09:00 +14°C° 0 mm 3 mps 742 mmHg 68%
    10:00 +16°C° 0 mm 3 mps 742 mmHg 64%
    11:00 +15°C° 0 mm 4 mps 743 mmHg 63%
    12:00 +17°C° 0 mm 4 mps 743 mmHg 62%
    13:00 +17°C° 0 mm 4 mps 743 mmHg 60%
    14:00 +15°C° 0 mm 4 mps 743 mmHg 62%
    15:00 +15°C° 0 mm 4 mps 744 mmHg 64%
    16:00 +14°C° 0 mm 5 mps 744 mmHg 67%
    17:00 +13°C° 0 mm 4 mps 744 mmHg 68%
    18:00 +12°C° 0 mm 4 mps 745 mmHg 69%
    19:00 +11°C° 0 mm 4 mps 745 mmHg 71%
    20:00 +11°C° 0 mm 4 mps 745 mmHg 71%
    21:00 +11°C° 0 mm 4 mps 746 mmHg 72%
    22:00 +10°C° 0 mm 4 mps 747 mmHg 73%
    23:00 +10°C° 0 mm 3 mps 747 mmHg 74%

    Tomorrow, 6 April, Monday

    Time Temperature Precipitation Wind Pressure Humidity
    00:00 +10°C° 0 mm 3 mps 747 mmHg 74%
    01:00 +10°C° 0 mm 3 mps 748 mmHg 75%
    02:00 +10°C° 0 mm 3 mps 748 mmHg 75%
    03:00 +10°C° 0 mm 3 mps 748 mmHg 75%
    04:00 +10°C° 0 mm 3 mps 748 mmHg 75%
    05:00 +10°C° 0 mm 3 mps 749 mmHg 75%
    06:00 +10°C° 0 mm 3 mps 749 mmHg 75%
    07:00 +11°C° 0 mm 3 mps 749 mmHg 75%
    08:00 +12°C° 0 mm 3 mps 750 mmHg 68%
    09:00 +13°C° 0 mm 3 mps 750 mmHg 61%
    10:00 +16°C° 0 mm 3 mps 750 mmHg 55%
    11:00 +15°C° 0 mm 4 mps 750 mmHg 52%
    12:00 +17°C° 0 mm 4 mps 750 mmHg 49%
    13:00 +18°C° 0 mm 4 mps 750 mmHg 47%
    14:00 +17°C° 0 mm 4 mps 750 mmHg 48%
    15:00 +17°C° 0 mm 4 mps 750 mmHg 49%
    16:00 +17°C° 0 mm 4 mps 750 mmHg 51%
    17:00 +14°C° 0 mm 3 mps 750 mmHg 54%
    18:00 +13°C° 0 mm 3 mps 750 mmHg 58%
    19:00 +11°C° 0 mm 3 mps 750 mmHg 62%
    20:00 +11°C° 0 mm 3 mps 751 mmHg 63%
    21:00 +10°C° 0 mm 2 mps 751 mmHg 64%
    22:00 +10°C° 0 mm 2 mps 752 mmHg 66%
    23:00 +9°C° 0 mm 2 mps 752 mmHg 65%

    Day after tomorrow, 7 April, Tuesday

    Time Temperature Precipitation Wind Pressure Humidity
    00:00 +9°C° 0 mm 2 mps 751 mmHg 65%
    01:00 +9°C° 0 mm 2 mps 751 mmHg 65%
    02:00 +9°C° 0 mm 2 mps 751 mmHg 66%
    03:00 +8°C° 0 mm 2 mps 751 mmHg 66%
    04:00 +8°C° 0 mm 2 mps 751 mmHg 66%
    05:00 +9°C° 0 mm 3 mps 751 mmHg 65%
    06:00 +10°C° 0 mm 3 mps 751 mmHg 64%
    07:00 +10°C° 0 mm 3 mps 751 mmHg 62%
    08:00 +12°C° 0 mm 3 mps 751 mmHg 52%
    09:00 +14°C° 0 mm 4 mps 752 mmHg 42%
    10:00 +17°C° 0 mm 4 mps 752 mmHg 33%
    11:00 +17°C° 0 mm 4 mps 752 mmHg 31%
    12:00 +18°C° 0 mm 4 mps 752 mmHg 30%
    13:00 +18°C° 0 mm 4 mps 752 mmHg 29%
    14:00 +18°C° 0 mm 4 mps 751 mmHg 31%
    15:00 +18°C° 0 mm 4 mps 751 mmHg 33%
    16:00 +17°C° 0 mm 4 mps 751 mmHg 36%
    17:00 +15°C° 0 mm 4 mps 751 mmHg 40%
    18:00 +13°C° 0 mm 3 mps 751 mmHg 45%
    19:00 +11°C° 0 mm 3 mps 751 mmHg 49%
    20:00 +10°C° 0 mm 3 mps 752 mmHg 51%
    21:00 +10°C° 0 mm 2 mps 752 mmHg 52%
    22:00 +9°C° 0 mm 2 mps 752 mmHg 54%
    23:00 +9°C° 0 mm 2 mps 752 mmHg 55%

    8 April, Wednesday

    Time Temperature Precipitation Wind Pressure Humidity
    00:00 +9°C° 0 mm 2 mps 752 mmHg 57%
    01:00 +8°C° 0 mm 2 mps 752 mmHg 58%
    02:00 +8°C° 0 mm 2 mps 752 mmHg 59%
    03:00 +8°C° 0 mm 2 mps 751 mmHg 60%
    04:00 +7°C° 0 mm 2 mps 751 mmHg 62%
    05:00 +8°C° 0 mm 2 mps 751 mmHg 62%
    06:00 +9°C° 0 mm 2 mps 751 mmHg 62%
    07:00 +10°C° 0 mm 2 mps 751 mmHg 62%
    08:00 +13°C° 0 mm 2 mps 751 mmHg 54%
    09:00 +14°C° 0 mm 3 mps 751 mmHg 46%
    10:00 +16°C° 0 mm 3 mps 751 mmHg 38%
    11:00 +17°C° 0 mm 3 mps 750 mmHg 37%
    12:00 +18°C° 0 mm 3 mps 750 mmHg 35%
    13:00 +19°C° 0 mm 3 mps 750 mmHg 34%
    14:00 +18°C° 0 mm 3 mps 749 mmHg 36%
    15:00 +18°C° 0 mm 3 mps 749 mmHg 37%
    16:00 +18°C° 0 mm 3 mps 749 mmHg 39%
    17:00 +16°C° 0 mm 2 mps 749 mmHg 46%
    18:00 +14°C° 0 mm 2 mps 749 mmHg 52%
    19:00 +12°C° 0 mm 1 mps 749 mmHg 59%
    20:00 +12°C° 0 mm 2 mps 749 mmHg 58%
    21:00 +10°C° 0 mm 2 mps 749 mmHg 58%
    22:00 +10°C° 0 mm 2 mps 749 mmHg 57%
    23:00 +9°C° 0 mm 2 mps 749 mmHg 57%

    9 April, Thursday

    Time Temperature Precipitation Wind Pressure Humidity
    00:00 +9°C° 0 mm 2 mps 749 mmHg 57%
    01:00 +9°C° 0 mm 2 mps 749 mmHg 57%
    02:00 +9°C° 0 mm 2 mps 749 mmHg 58%
    03:00 +8°C° 0 mm 2 mps 749 mmHg 58%
    04:00 +8°C° 0 mm 2 mps 749 mmHg 59%
    05:00 +9°C° 0 mm 2 mps 749 mmHg 59%
    06:00 +10°C° 0 mm 2 mps 748 mmHg 59%
    07:00 +12°C° 0 mm 1 mps 748 mmHg 58%
    08:00 +14°C° 0 mm 1 mps 748 mmHg 52%
    09:00 +16°C° 0 mm 1 mps 748 mmHg 46%
    10:00 +19°C° 0 mm 1 mps 748 mmHg 39%
    11:00 +19°C° 0 mm 2 mps 748 mmHg 39%
    12:00 +19°C° 0 mm 2 mps 748 mmHg 39%
    13:00 +20°C° 0 mm 3 mps 748 mmHg 39%
    14:00 +19°C° 0 mm 3 mps 747 mmHg 43%
    15:00 +19°C° 0 mm 3 mps 747 mmHg 47%
    16:00 +18°C° 0 mm 3 mps 747 mmHg 51%
    17:00 +16°C° 0 mm 2 mps 747 mmHg 58%
    18:00 +14°C° 0 mm 1 mps 747 mmHg 66%
    19:00 +13°C° 0 mm 1 mps 747 mmHg 73%
    20:00 +12°C° 0 mm 1 mps 747 mmHg 72%
    21:00 +12°C° 0 mm 1 mps 747 mmHg 71%
    22:00 +11°C° 0 mm 1 mps 747 mmHg 70%
    23:00 +11°C° 0 mm 1 mps 747 mmHg 69%

    10 April, Friday

    Time Temperature Precipitation Wind Pressure Humidity
    00:00 +11°C° 0 mm 1 mps 747 mmHg 68%
    01:00 +11°C° 0 mm 1 mps 747 mmHg 67%
    02:00 +11°C° 0 mm 1 mps 747 mmHg 66%
    03:00 +10°C° 0 mm 1 mps 747 mmHg 65%
    04:00 +10°C° 0 mm 1 mps 747 mmHg 64%
    05:00 +11°C° 0 mm 1 mps 747 mmHg 61%
    06:00 +13°C° 0 mm 1 mps 747 mmHg 59%
    07:00 +13°C° 0 mm 0 mps 747 mmHg 57%
    08:00 +15°C° 0 mm 1 mps 747 mmHg 52%
    09:00 +18°C° 0 mm 1 mps 747 mmHg 48%
    10:00 +19°C° 0 mm 2 mps 747 mmHg 43%
    11:00 +19°C° 0 mm 2 mps 747 mmHg 44%
    12:00 +20°C° 0 mm 2 mps 747 mmHg 45%
    13:00 +21°C° 0 mm 3 mps 747 mmHg 45%
    14:00 +20°C° 0 mm 3 mps 747 mmHg 50%
    15:00 +20°C° 0 mm 3 mps 746 mmHg 54%
    16:00 +19°C° 0 mm 3 mps 746 mmHg 59%
    17:00 +17°C° 0 mm 2 mps 746 mmHg 67%
    18:00 +15°C° 0 mm 1 mps 746 mmHg 76%
    19:00 +13°C° 0 mm 1 mps 746 mmHg 85%
    20:00 +13°C° 0 mm 1 mps 747 mmHg 84%
    21:00 +12°C° 0 mm 0 mps 747 mmHg 83%
    22:00 +11°C° 0 mm 0 mps 747 mmHg 82%
    23:00 +11°C° 0 mm 0 mps 747 mmHg 80%
    Show more